Dati Storici

Data ora Umidita' aria (%) Temperatura aria (°C) Rad globale (W/m²) Gonioanemometro (°) Tacoanemometro (m/s) Pioggia (mm)
03-07-2020 16:10 55.5 % 26.083 -76.445 1.117 0 0
03-07-2020 16:00 55.1 % 26.019 -77.679 2.359 0 0
03-07-2020 15:50 55.8 % 26.254 -62.982 0.728 0 0
03-07-2020 15:40 54.9 % 26.111 -54.023 4.514 0 0
03-07-2020 15:30 55.8 % 26.128 -45.77 1.662 0 0
03-07-2020 15:20 55.2 % 26.421 -60.179 0.957 0 0
03-07-2020 15:10 55.7 % 26.727 -67.292 3.494 0 0
03-07-2020 15:00 55.8 % 26.317 -80.988 4.768 0 0
03-07-2020 14:50 56.8 % 26.587 -75.163 3.458 0 0
03-07-2020 14:40 57.2 % 26.446 -81.349 1.699 0 0
03-07-2020 14:30 56.8 % 26.665 -78.327 6.999 0 0
03-07-2020 14:20 55.4 % 27.195 -81.457 4.213 0 0
03-07-2020 14:10 56.2 % 26.898 -76.675 3.144 0 0
03-07-2020 14:00 55.2 % 27.741 -80.18 2.081 0 0
03-07-2020 13:50 55.7 % 27.734 -37.136 0.967 0 0
03-07-2020 13:40 56.1 % 27.949 -29.841 2.104 0 0
03-07-2020 13:30 54.7 % 27.974 -71.535 3.079 0 0
03-07-2020 13:20 52.4 % 27.956 -56.117 1.458 0 0
03-07-2020 13:10 54.5 % 27.447 -72.661 4.782 0 0
03-07-2020 13:00 54.9 % 27.263 -63.867 4.686 0 0

I dati sono presentati in modo automatico a scopo informativo. In seguito a verifica i dati possono subire modifiche o essere invalidati e non riportati negli archivi definitivi.